Location: Home
(42.5358°N, 72.7383°W)
Time: 13:37:37
(UTC-05:00)

Explorer 11/Cluster Stage 4 - Visible Passes

Search period start: 06 December 2021 00:00
Search period end: 16 December 2021 00:00
Orbit: 467 x 1255 km, 28.8° (Epoch: 05 December)

Date Brightness Start Highest point End Pass type
(mag) Time Alt. Az. Time Alt. Az. Time Alt. Az.
06 Dec 9.2 03:14:33 19° SE 03:14:33 19° SE 03:17:15 10° SE visible
06 Dec 8.9 04:56:39 17° SW 04:59:23 20° SSW 05:04:53 10° SSE visible
07 Dec 9.4 03:03:58 15° SE 03:03:58 15° SE 03:05:26 10° SE visible
07 Dec 8.9 04:46:04 17° SSW 04:47:49 18° SSW 04:52:48 10° SSE visible
08 Dec 9.7 02:53:24 11° SE 02:53:24 11° SE 02:53:34 10° SE visible
08 Dec 9.0 04:35:30 16° SSW 04:36:15 16° SSW 04:40:34 10° SSE visible
09 Dec 9.1 04:24:57 14° SSW 04:24:57 14° SSW 04:28:09 10° S visible
10 Dec 9.3 04:14:26 11° S 04:14:26 11° S 04:15:21 10° S visible
